Weather History for Big Piney, WY

Change the Weather History Date:

Friday, September 13, 2013

  Actual Average Record
Temperature  
Mean Temperature 54 °F 51 °F  
Max Temperature 64 °F 69 °F 85 °F (1990)
Min Temperature 43 °F 32 °F 20 °F (1999)
Degree Days  
Heating Degree Days 11 14  
Month to date heating degree days 62 157  
Since 1 July heating degree days 163 450  
Cooling Degree Days 0 0  
Month to date cooling degree days 5 0  
Year to date cooling degree days 89 35  
Growing Degree Days 4 (Base 50)    
Moisture  
Dew Point 48 °F    
Average Humidity 80    
Maximum Humidity 100    
Minimum Humidity 60    
Precipitation  
Precipitation T in 0.02 in 1.19 in (1982)
Month to date precipitation 0.35 0.33  
Year to date precipitation 3.35 4.99  
Sea Level Pressure  
Sea Level Pressure 30.01 in    
Wind  
Wind Speed 3 mph (SW)    
Max Wind Speed 13 mph    
Max Gust Speed 31 mph    
Visibility 10 miles    
Events      
T = Trace of Precipitation, MM = Missing Value Source: NWS Daily Summary

Daily Weather History Graph

Daily Weather History Graph

Search for Another Location

Airport:

Trip Planner

Search our weather history database for the weather conditions in past years. The results will help you decide how hot, cold, wet, or windy it might be!

Date:

Astronomy

Sep. 13, 2013 Rise Set
Actual Time 6:58 AM MDT 7:33 PM MDT
Civil Twilight 6:30 AM MDT 8:01 PM MDT
Nautical Twilight 5:56 AM MDT 8:34 PM MDT
Astronomical Twilight 5:21 AM MDT 9:09 PM MDT
Moon 3:31 PM MDT (9/13) 12:25 AM MDT (9/13)
Length of Visible Light 13h 31m
Length of Day
12h 34m
Waxing Gibbous, 62% of the Moon is Illuminated
Sep 13
Waxing Gibbous
Sep 19
Full
Sep 26
Last Quarter
Oct 4
New
Oct 11
First Quarter

Hourly Weather History & Observations

Time (MDT) Temp. Windchill Dew Point Humidity Pressure Visibility Wind Dir Wind Speed Gust Speed Precip Events Conditions
12:53 AM 46.0 °F 41.4 °F 44.1 °F 93% 30.06 in 10.0 mi NNW 9.2 mph - N/A   Clear
1:53 AM 46.0 °F 44.8 °F 44.1 °F 93% 30.06 in 10.0 mi East 3.5 mph - N/A   Clear
2:53 AM 45.0 °F - 43.0 °F 93% 30.04 in 10.0 mi Calm Calm - N/A   Clear
3:53 AM 44.1 °F - 42.1 °F 93% 30.03 in 10.0 mi Calm Calm - N/A   Clear
4:53 AM 45.0 °F - 43.0 °F 93% 30.01 in 10.0 mi Calm Calm - N/A   Clear
5:53 AM 44.1 °F - 43.0 °F 96% 30.01 in 10.0 mi Calm Calm - N/A   Clear
6:15 AM 44.6 °F - 42.8 °F 93% 30.21 in 10.0 mi Calm Calm - N/A   Mostly Cloudy
6:53 AM 45.0 °F - 43.0 °F 93% 30.05 in 10.0 mi Calm Calm - N/A   Overcast
7:05 AM 44.6 °F 43.1 °F 42.8 °F 93% 30.20 in 10.0 mi WNW 3.5 mph - N/A   Overcast
7:53 AM 45.0 °F 43.5 °F 44.1 °F 97% 30.04 in 10.0 mi North 3.5 mph - N/A   Scattered Clouds
8:53 AM 48.9 °F - 46.0 °F 90% 30.03 in 10.0 mi Calm Calm - N/A   Clear
9:53 AM 50.0 °F - 48.0 °F 93% 30.03 in 10.0 mi SE 3.5 mph - N/A   Mostly Cloudy
10:53 AM 53.1 °F - 48.0 °F 83% 30.01 in 10.0 mi ENE 6.9 mph - N/A   Mostly Cloudy
11:53 AM 57.9 °F - 51.1 °F 78% 29.99 in 10.0 mi SSW 8.1 mph - N/A   Overcast
12:11 PM 59.0 °F - 51.8 °F 77% 30.17 in 10.0 mi Variable 4.6 mph - N/A   Overcast
12:20 PM 59.0 °F - 51.8 °F 77% 30.17 in 10.0 mi SSW 4.6 mph - N/A   Overcast
12:53 PM 59.0 °F - 51.1 °F 75% 29.96 in 10.0 mi South 5.8 mph - N/A   Overcast
1:32 PM 59.0 °F - 51.8 °F 77% 30.15 in 10.0 mi ESE 5.8 mph - N/A   Overcast
1:53 PM 61.0 °F - 51.1 °F 70% 29.93 in 10.0 mi ESE 6.9 mph - N/A   Overcast
2:02 PM 60.8 °F - 51.8 °F 72% 30.14 in 10.0 mi Variable 3.5 mph - N/A   Overcast
2:53 PM 64.0 °F - 51.1 °F 63% 29.89 in 10.0 mi Calm Calm - N/A   Partly Cloudy
3:53 PM 63.0 °F - 48.9 °F 60% 29.88 in 10.0 mi Calm Calm - N/A   Partly Cloudy
4:18 PM 62.6 °F - 50.0 °F 63% 30.09 in 10.0 mi Calm Calm - N/A   Mostly Cloudy
4:32 PM 62.6 °F - 50.0 °F 63% 30.09 in 10.0 mi SSW 5.8 mph - N/A   Mostly Cloudy
4:53 PM 62.1 °F - 50.0 °F 65% 29.88 in 10.0 mi WSW 4.6 mph - N/A   Scattered Clouds
5:53 PM 59.0 °F - 51.1 °F 75% 29.88 in 10.0 mi WNW 9.2 mph - N/A   Overcast
6:53 PM 59.0 °F - 53.1 °F 81% 29.87 in 10.0 mi NW 3.5 mph - N/A   Mostly Cloudy
7:53 PM 55.9 °F - 52.0 °F 87% 29.88 in 10.0 mi West 3.5 mph - N/A   Mostly Cloudy
8:53 PM 55.9 °F - 51.1 °F 84% 29.87 in 10.0 mi Calm Calm - N/A   Mostly Cloudy
9:53 PM 53.1 °F - 50.0 °F 89% 29.88 in 10.0 mi Calm Calm - N/A   Clear
10:53 PM 53.1 °F - 50.0 °F 89% 29.88 in 10.0 mi Calm Calm - N/A   Mostly Cloudy
11:53 PM 53.1 °F - 51.1 °F 93% 29.86 in 10.0 mi Calm Calm - N/A   Overcast